Year,Month,Day,Hour,Minute,Value (Times are PST for temperature in C)
2013,07,04,00,00,13.70
2013,07,04,00,01,13.70
2013,07,04,00,02,13.70
2013,07,04,00,03,13.70
2013,07,04,00,04,13.70
2013,07,04,00,05,13.70
2013,07,04,00,06,13.70
2013,07,04,00,07,13.70
2013,07,04,00,08,13.70
2013,07,04,00,09,13.70
2013,07,04,00,10,13.70
2013,07,04,00,11,13.70
2013,07,04,00,12,13.70
2013,07,04,00,13,13.70
2013,07,04,00,14,13.70
2013,07,04,00,15,13.70
2013,07,04,00,16,13.70
2013,07,04,00,17,13.70
2013,07,04,00,18,13.70
2013,07,04,00,19,13.70
2013,07,04,00,20,13.70
2013,07,04,00,21,13.70
2013,07,04,00,22,13.70
2013,07,04,00,23,13.70
2013,07,04,00,24,13.70
2013,07,04,00,25,13.70
2013,07,04,00,26,13.70
2013,07,04,00,27,13.70
2013,07,04,00,28,13.70
2013,07,04,00,29,13.70
2013,07,04,00,30,13.70
2013,07,04,00,31,13.70
2013,07,04,00,32,13.70
2013,07,04,00,33,13.70
2013,07,04,00,34,13.70
2013,07,04,00,35,13.70
2013,07,04,00,36,13.70
2013,07,04,00,37,13.70
2013,07,04,00,38,13.70
2013,07,04,00,39,13.70
2013,07,04,00,40,13.70
2013,07,04,00,41,13.70
2013,07,04,00,42,13.70
2013,07,04,00,43,13.70
2013,07,04,00,44,13.70
2013,07,04,00,45,13.60
2013,07,04,00,46,13.60
2013,07,04,00,47,13.60
2013,07,04,00,48,13.60
2013,07,04,00,49,13.60
2013,07,04,00,50,13.60
2013,07,04,00,51,13.60
2013,07,04,00,52,13.60
2013,07,04,00,53,13.60
2013,07,04,00,54,13.60
2013,07,04,00,55,13.60
2013,07,04,00,56,13.60
2013,07,04,00,57,13.60
2013,07,04,00,58,13.60
2013,07,04,00,59,13.60
2013,07,04,01,00,13.60
2013,07,04,01,01,13.60
2013,07,04,01,02,13.60
2013,07,04,01,03,13.60
2013,07,04,01,04,13.60
2013,07,04,01,05,13.60
2013,07,04,01,06,13.60
2013,07,04,01,07,13.60
2013,07,04,01,08,13.60
2013,07,04,01,09,13.60
2013,07,04,01,10,13.60
2013,07,04,01,11,13.60
2013,07,04,01,12,13.60
2013,07,04,01,13,13.60
2013,07,04,01,14,13.60
2013,07,04,01,15,13.60
2013,07,04,01,16,13.60
2013,07,04,01,17,13.60
2013,07,04,01,18,13.60
2013,07,04,01,19,13.60
2013,07,04,01,20,13.60
2013,07,04,01,21,13.60
2013,07,04,01,22,13.60
2013,07,04,01,23,13.60
2013,07,04,01,24,13.60
2013,07,04,01,25,13.60
2013,07,04,01,26,13.70
2013,07,04,01,27,13.70
2013,07,04,01,28,13.70
2013,07,04,01,29,13.70
2013,07,04,01,30,13.70
2013,07,04,01,31,13.70
2013,07,04,01,32,13.70
2013,07,04,01,33,13.70
2013,07,04,01,34,13.70
2013,07,04,01,35,13.70
2013,07,04,01,36,13.70
2013,07,04,01,37,13.70
2013,07,04,01,38,13.70
2013,07,04,01,39,13.70
2013,07,04,01,40,13.70
2013,07,04,01,41,13.70
2013,07,04,01,42,13.70
2013,07,04,01,43,13.60
2013,07,04,01,44,13.60
2013,07,04,01,45,13.60
2013,07,04,01,46,13.70
2013,07,04,01,47,13.70
2013,07,04,01,48,13.70
2013,07,04,01,49,13.70
2013,07,04,01,50,13.60
2013,07,04,01,51,13.60
2013,07,04,01,52,13.60
2013,07,04,01,53,13.60
2013,07,04,01,54,13.60
2013,07,04,01,55,13.60
2013,07,04,01,56,13.60
2013,07,04,01,57,13.70
2013,07,04,01,58,13.60
2013,07,04,01,59,13.70
2013,07,04,02,00,13.70
2013,07,04,02,01,13.70
2013,07,04,02,02,13.70
2013,07,04,02,03,13.70
2013,07,04,02,04,13.70
2013,07,04,02,05,13.70
2013,07,04,02,06,13.70
2013,07,04,02,07,13.70
2013,07,04,02,08,13.70
2013,07,04,02,09,13.70
2013,07,04,02,10,13.70
2013,07,04,02,11,13.70
2013,07,04,02,12,13.70
2013,07,04,02,13,13.70
2013,07,04,02,14,13.70
2013,07,04,02,15,13.70
2013,07,04,02,16,13.70
2013,07,04,02,17,13.70
2013,07,04,02,18,13.70
2013,07,04,02,19,13.70
2013,07,04,02,20,13.70
2013,07,04,02,21,13.70
2013,07,04,02,22,13.70
2013,07,04,02,23,13.70
2013,07,04,02,24,13.70
2013,07,04,02,25,13.70
2013,07,04,02,26,13.70
2013,07,04,02,27,13.70
2013,07,04,02,28,13.70
2013,07,04,02,29,13.70
2013,07,04,02,30,13.70
2013,07,04,02,31,13.70
2013,07,04,02,32,13.70
2013,07,04,02,33,13.70
2013,07,04,02,34,13.70
2013,07,04,02,35,13.70
2013,07,04,02,36,13.70
2013,07,04,02,37,13.70
2013,07,04,02,38,13.70
2013,07,04,02,39,13.70
2013,07,04,02,40,13.70
2013,07,04,02,41,13.70
2013,07,04,02,42,13.70
2013,07,04,02,43,13.70
2013,07,04,02,44,13.70
2013,07,04,02,45,13.70
2013,07,04,02,46,13.70
2013,07,04,02,47,13.70
2013,07,04,02,48,13.70
2013,07,04,02,49,13.70
2013,07,04,02,50,13.70
2013,07,04,02,51,13.70
2013,07,04,02,52,13.70
2013,07,04,02,53,13.70
2013,07,04,02,54,13.70
2013,07,04,02,55,13.70
2013,07,04,02,56,13.70
2013,07,04,02,57,13.70
2013,07,04,02,58,13.70
2013,07,04,02,59,13.80
2013,07,04,03,00,13.80
2013,07,04,03,01,13.80
2013,07,04,03,02,13.80
2013,07,04,03,03,13.70
2013,07,04,03,04,13.80
2013,07,04,03,05,13.70
2013,07,04,03,06,13.70
2013,07,04,03,07,13.70
2013,07,04,03,08,13.70
2013,07,04,03,09,13.70
2013,07,04,03,10,13.70
2013,07,04,03,11,13.70
2013,07,04,03,12,13.70
2013,07,04,03,13,13.70
2013,07,04,03,14,13.70
2013,07,04,03,15,13.70
2013,07,04,03,16,13.70
2013,07,04,03,17,13.70
2013,07,04,03,18,13.70
2013,07,04,03,19,13.70
2013,07,04,03,20,13.70
2013,07,04,03,21,13.70
2013,07,04,03,22,13.70
2013,07,04,03,23,13.70
2013,07,04,03,24,13.70
2013,07,04,03,25,13.70
2013,07,04,03,26,13.70
2013,07,04,03,27,13.70
2013,07,04,03,28,13.70
2013,07,04,03,29,13.70
2013,07,04,03,30,13.70
2013,07,04,03,31,13.70
2013,07,04,03,32,13.70
2013,07,04,03,33,13.70
2013,07,04,03,34,13.70
2013,07,04,03,35,13.70
2013,07,04,03,36,13.70
2013,07,04,03,37,13.70
2013,07,04,03,38,13.60
2013,07,04,03,39,13.60
2013,07,04,03,40,13.60
2013,07,04,03,41,13.60
2013,07,04,03,42,13.60
2013,07,04,03,43,13.60
2013,07,04,03,44,13.60
2013,07,04,03,45,13.60
2013,07,04,03,46,13.60
2013,07,04,03,47,13.60
2013,07,04,03,48,13.60
2013,07,04,03,49,13.60
2013,07,04,03,50,13.60
2013,07,04,03,51,13.60
2013,07,04,03,52,13.60
2013,07,04,03,53,13.60
2013,07,04,03,54,13.60
2013,07,04,03,55,13.60
2013,07,04,03,56,13.60
2013,07,04,03,57,13.60
2013,07,04,03,58,13.60
2013,07,04,03,59,13.60
2013,07,04,04,00,13.60
2013,07,04,04,01,13.60
2013,07,04,04,02,13.60
2013,07,04,04,03,13.60
2013,07,04,04,04,13.60
2013,07,04,04,05,13.50
2013,07,04,04,06,13.50
2013,07,04,04,07,13.50
2013,07,04,04,08,13.50
2013,07,04,04,09,13.50
2013,07,04,04,10,13.50
2013,07,04,04,11,13.50
2013,07,04,04,12,13.50
2013,07,04,04,13,13.50
2013,07,04,04,14,13.50
2013,07,04,04,15,13.50
2013,07,04,04,16,13.50
2013,07,04,04,17,13.50
2013,07,04,04,18,13.50
2013,07,04,04,19,13.50
2013,07,04,04,20,13.50
2013,07,04,04,21,13.50
2013,07,04,04,22,13.50
2013,07,04,04,23,13.50
2013,07,04,04,24,13.40
2013,07,04,04,25,13.40
2013,07,04,04,26,13.40
2013,07,04,04,27,13.40
2013,07,04,04,28,13.40
2013,07,04,04,29,13.40
2013,07,04,04,30,13.40
2013,07,04,04,31,13.40
2013,07,04,04,32,13.40
2013,07,04,04,33,13.40
2013,07,04,04,34,13.40
2013,07,04,04,35,13.40
2013,07,04,04,36,13.40
2013,07,04,04,37,13.40
2013,07,04,04,38,13.40
2013,07,04,04,39,13.40
2013,07,04,04,40,13.40
2013,07,04,04,41,13.40
2013,07,04,04,42,13.40
2013,07,04,04,43,13.40
2013,07,04,04,44,13.40
2013,07,04,04,45,13.40
2013,07,04,04,46,13.40
2013,07,04,04,47,13.40
2013,07,04,04,48,13.40
2013,07,04,04,49,13.40
2013,07,04,04,50,13.40
2013,07,04,04,51,13.40
2013,07,04,04,52,13.40
2013,07,04,04,53,13.40
2013,07,04,04,54,13.40
2013,07,04,04,55,13.40
2013,07,04,04,56,13.40
2013,07,04,04,57,13.40
2013,07,04,04,58,13.40
2013,07,04,04,59,13.40
2013,07,04,05,00,13.40
2013,07,04,05,01,13.40
2013,07,04,05,02,13.40
2013,07,04,05,03,13.40
2013,07,04,05,04,13.40
2013,07,04,05,05,13.40
2013,07,04,05,06,13.40
2013,07,04,05,07,13.40
2013,07,04,05,08,13.40
2013,07,04,05,09,13.40
2013,07,04,05,10,13.40
2013,07,04,05,11,13.40
2013,07,04,05,12,13.40
2013,07,04,05,13,13.40
2013,07,04,05,14,13.40
2013,07,04,05,15,13.40
2013,07,04,05,16,13.40
2013,07,04,05,17,13.40
2013,07,04,05,18,13.40
2013,07,04,05,19,13.40
2013,07,04,05,20,13.40
2013,07,04,05,21,13.40
2013,07,04,05,22,13.40
2013,07,04,05,23,13.40
2013,07,04,05,24,13.40
2013,07,04,05,25,13.40
2013,07,04,05,26,13.40
2013,07,04,05,27,13.40
2013,07,04,05,28,13.40
2013,07,04,05,29,13.40
2013,07,04,05,30,13.40
2013,07,04,05,31,13.40
2013,07,04,05,32,13.40
2013,07,04,05,33,13.40
2013,07,04,05,34,13.40
2013,07,04,05,35,13.40
2013,07,04,05,36,13.40
2013,07,04,05,37,13.40
2013,07,04,05,38,13.40
2013,07,04,05,39,13.40
2013,07,04,05,40,13.40
2013,07,04,05,41,13.40
2013,07,04,05,42,13.40
2013,07,04,05,43,13.30
2013,07,04,05,44,13.40
2013,07,04,05,45,13.30
2013,07,04,05,46,13.30
2013,07,04,05,47,13.30
2013,07,04,05,48,13.30
2013,07,04,05,49,13.30
2013,07,04,05,50,13.30
2013,07,04,05,51,13.30
2013,07,04,05,52,13.40
2013,07,04,05,53,13.40
2013,07,04,05,54,13.40
2013,07,04,05,55,13.40
2013,07,04,05,56,13.40
2013,07,04,05,57,13.40
2013,07,04,05,58,13.40
2013,07,04,05,59,13.40
2013,07,04,06,00,13.40
2013,07,04,06,01,13.40
2013,07,04,06,02,13.40
2013,07,04,06,03,13.40
2013,07,04,06,04,13.40
2013,07,04,06,05,13.40
2013,07,04,06,06,13.40
2013,07,04,06,07,13.40
2013,07,04,06,08,13.40
2013,07,04,06,09,13.50
2013,07,04,06,10,13.50
2013,07,04,06,11,13.50
2013,07,04,06,12,13.50
2013,07,04,06,13,13.50
2013,07,04,06,14,13.50
2013,07,04,06,15,13.50
2013,07,04,06,16,13.50
2013,07,04,06,17,13.60
2013,07,04,06,18,13.60
2013,07,04,06,19,13.60
2013,07,04,06,20,13.60
2013,07,04,06,21,13.60
2013,07,04,06,22,13.60
2013,07,04,06,23,13.60
2013,07,04,06,24,13.60
2013,07,04,06,25,13.60
2013,07,04,06,26,13.60
2013,07,04,06,27,13.60
2013,07,04,06,28,13.70
2013,07,04,06,29,13.70
2013,07,04,06,30,13.70
2013,07,04,06,31,13.70
2013,07,04,06,32,13.70
2013,07,04,06,33,13.70
2013,07,04,06,34,13.70
2013,07,04,06,35,13.80
2013,07,04,06,36,13.80
2013,07,04,06,37,13.80
2013,07,04,06,38,13.80
2013,07,04,06,39,13.80
2013,07,04,06,40,13.80
2013,07,04,06,41,13.80
2013,07,04,06,42,13.80
2013,07,04,06,43,13.90
2013,07,04,06,44,13.90
2013,07,04,06,45,13.90
2013,07,04,06,46,13.90
2013,07,04,06,47,13.90
2013,07,04,06,48,13.90
2013,07,04,06,49,14.00
2013,07,04,06,50,14.00
2013,07,04,06,51,14.00
2013,07,04,06,52,14.00
2013,07,04,06,53,14.10
2013,07,04,06,54,14.10
2013,07,04,06,55,14.10
2013,07,04,06,56,14.10
2013,07,04,06,57,14.10
2013,07,04,06,58,14.20
2013,07,04,06,59,14.20
2013,07,04,07,00,14.20
2013,07,04,07,01,14.20
2013,07,04,07,02,14.20
2013,07,04,07,03,14.20
2013,07,04,07,04,14.20
2013,07,04,07,05,14.30
2013,07,04,07,06,14.30
2013,07,04,07,07,14.30
2013,07,04,07,08,14.30
2013,07,04,07,09,14.30
2013,07,04,07,10,14.40
2013,07,04,07,11,14.40
2013,07,04,07,12,14.40
2013,07,04,07,13,14.40
2013,07,04,07,14,14.40
2013,07,04,07,15,14.50
2013,07,04,07,16,14.50
2013,07,04,07,17,14.50
2013,07,04,07,18,14.50
2013,07,04,07,19,14.60
2013,07,04,07,20,14.60
2013,07,04,07,21,14.60
2013,07,04,07,22,14.60
2013,07,04,07,23,14.60
2013,07,04,07,24,14.70
2013,07,04,07,25,14.70
2013,07,04,07,26,14.70
2013,07,04,07,27,14.70
2013,07,04,07,28,14.70
2013,07,04,07,29,14.70
2013,07,04,07,30,14.70
2013,07,04,07,31,14.80
2013,07,04,07,32,14.80
2013,07,04,07,33,14.80
2013,07,04,07,34,14.80
2013,07,04,07,35,14.80
2013,07,04,07,36,14.80
2013,07,04,07,37,14.90
2013,07,04,07,38,14.90
2013,07,04,07,39,14.90
2013,07,04,07,40,14.90
2013,07,04,07,41,15.00
2013,07,04,07,42,15.00
2013,07,04,07,43,15.00
2013,07,04,07,44,15.00
2013,07,04,07,45,15.00
2013,07,04,07,46,15.10
2013,07,04,07,47,15.10
2013,07,04,07,48,15.10
2013,07,04,07,49,15.10
2013,07,04,07,50,15.20
2013,07,04,07,51,15.20
2013,07,04,07,52,15.20
2013,07,04,07,53,15.20
2013,07,04,07,54,15.20
2013,07,04,07,55,15.20
2013,07,04,07,56,15.20
2013,07,04,07,57,15.30
2013,07,04,07,58,15.30
2013,07,04,07,59,15.30
2013,07,04,08,00,15.30
2013,07,04,08,01,15.30
2013,07,04,08,02,15.30
2013,07,04,08,03,15.40
2013,07,04,08,04,15.40
2013,07,04,08,05,15.50
2013,07,04,08,06,15.50
2013,07,04,08,07,15.60
2013,07,04,08,08,15.60
2013,07,04,08,09,15.60
2013,07,04,08,10,15.70
2013,07,04,08,11,15.70
2013,07,04,08,12,15.70
2013,07,04,08,13,15.70
2013,07,04,08,14,15.70
2013,07,04,08,15,15.80
2013,07,04,08,16,15.80
2013,07,04,08,17,15.80
2013,07,04,08,18,15.80
2013,07,04,08,19,15.80
2013,07,04,08,20,15.80
2013,07,04,08,21,15.90
2013,07,04,08,22,15.90
2013,07,04,08,23,15.90
2013,07,04,08,24,15.90
2013,07,04,08,25,15.90
2013,07,04,08,26,15.90
2013,07,04,08,27,15.90
2013,07,04,08,28,16.00
2013,07,04,08,29,16.00
2013,07,04,08,30,16.00
2013,07,04,08,31,16.10
2013,07,04,08,32,16.10
2013,07,04,08,33,16.10
2013,07,04,08,34,16.10
2013,07,04,08,35,16.10
2013,07,04,08,36,16.20
2013,07,04,08,37,16.20
2013,07,04,08,38,16.20
2013,07,04,08,39,16.20
2013,07,04,08,40,16.30
2013,07,04,08,41,16.30
2013,07,04,08,42,16.30
2013,07,04,08,43,16.30
2013,07,04,08,44,16.30
2013,07,04,08,45,16.40
2013,07,04,08,46,16.40
2013,07,04,08,47,16.50
2013,07,04,08,48,16.50
2013,07,04,08,49,16.60
2013,07,04,08,50,16.60
2013,07,04,08,51,16.60
2013,07,04,08,52,16.70
2013,07,04,08,53,16.70
2013,07,04,08,54,16.80
2013,07,04,08,55,16.80
2013,07,04,08,56,16.80
2013,07,04,08,57,16.80
2013,07,04,08,58,16.80
2013,07,04,08,59,16.90
2013,07,04,09,00,16.90
2013,07,04,09,01,16.90
2013,07,04,09,02,16.90
2013,07,04,09,03,16.90
2013,07,04,09,04,17.00
2013,07,04,09,05,17.00
2013,07,04,09,06,17.00
2013,07,04,09,07,17.00
2013,07,04,09,08,17.00
2013,07,04,09,09,17.00
2013,07,04,09,10,17.10
2013,07,04,09,11,17.10
2013,07,04,09,12,17.10
2013,07,04,09,13,17.20
2013,07,04,09,14,17.20
2013,07,04,09,15,17.30
2013,07,04,09,16,17.30
2013,07,04,09,17,17.40
2013,07,04,09,18,17.50
2013,07,04,09,19,17.60
2013,07,04,09,20,17.60
2013,07,04,09,21,17.70
2013,07,04,09,22,17.70
2013,07,04,09,23,17.70
2013,07,04,09,24,17.70
2013,07,04,09,25,17.70
2013,07,04,09,26,17.70
2013,07,04,09,27,17.70
2013,07,04,09,28,17.70
2013,07,04,09,29,17.70
2013,07,04,09,30,17.60
2013,07,04,09,31,17.60
2013,07,04,09,32,17.60
2013,07,04,09,33,17.60
2013,07,04,09,34,17.70
2013,07,04,09,35,17.70
2013,07,04,09,36,17.70
2013,07,04,09,37,17.70
2013,07,04,09,38,17.70
2013,07,04,09,39,17.70
2013,07,04,09,40,17.70
2013,07,04,09,41,17.70
2013,07,04,09,42,17.70
2013,07,04,09,43,17.80
2013,07,04,09,44,17.80
2013,07,04,09,45,17.80
2013,07,04,09,46,17.80
2013,07,04,09,47,17.80
2013,07,04,09,48,17.80
2013,07,04,09,49,17.90
2013,07,04,09,50,17.90
2013,07,04,09,51,17.90
2013,07,04,09,52,17.90
2013,07,04,09,53,17.90
2013,07,04,09,54,17.90
2013,07,04,09,55,17.90
2013,07,04,09,56,17.90
2013,07,04,09,57,17.80
2013,07,04,09,58,17.80
2013,07,04,09,59,17.80
2013,07,04,10,00,17.80
2013,07,04,10,01,17.80
2013,07,04,10,02,17.80
2013,07,04,10,03,17.80
2013,07,04,10,04,17.80
2013,07,04,10,05,17.90
2013,07,04,10,06,17.90
2013,07,04,10,07,17.90
2013,07,04,10,08,17.90
2013,07,04,10,09,18.00
2013,07,04,10,10,18.00
2013,07,04,10,11,18.00
2013,07,04,10,12,18.00
2013,07,04,10,13,18.00
2013,07,04,10,14,18.00
2013,07,04,10,15,18.10
2013,07,04,10,16,18.10
2013,07,04,10,17,18.10
2013,07,04,10,18,18.20
2013,07,04,10,19,18.20
2013,07,04,10,20,18.20
2013,07,04,10,21,18.30
2013,07,04,10,22,18.30
2013,07,04,10,23,18.30
2013,07,04,10,24,18.30
2013,07,04,10,25,18.30
2013,07,04,10,26,18.40
2013,07,04,10,27,18.40
2013,07,04,10,28,18.50
2013,07,04,10,29,18.50
2013,07,04,10,30,18.60
2013,07,04,10,31,18.60
2013,07,04,10,32,18.60
2013,07,04,10,33,18.60
2013,07,04,10,34,18.70
2013,07,04,10,35,18.70
2013,07,04,10,36,18.80
2013,07,04,10,37,18.80
2013,07,04,10,38,18.80
2013,07,04,10,39,18.90
2013,07,04,10,40,18.90
2013,07,04,10,41,18.90
2013,07,04,10,42,18.80
2013,07,04,10,43,18.80
2013,07,04,10,44,18.80
2013,07,04,10,45,18.80
2013,07,04,10,46,18.80
2013,07,04,10,47,18.80
2013,07,04,10,48,18.80
2013,07,04,10,49,18.80
2013,07,04,10,50,18.80
2013,07,04,10,51,18.80
2013,07,04,10,52,18.90
2013,07,04,10,53,18.90
2013,07,04,10,54,18.90
2013,07,04,10,55,18.90
2013,07,04,10,56,19.00
2013,07,04,10,57,19.00
2013,07,04,10,58,19.10
2013,07,04,10,59,19.10
2013,07,04,11,00,19.10
2013,07,04,11,01,19.10
2013,07,04,11,02,19.10
2013,07,04,11,03,19.10
2013,07,04,11,04,19.10
2013,07,04,11,05,19.10
2013,07,04,11,06,19.10
2013,07,04,11,07,19.10
2013,07,04,11,08,19.10
2013,07,04,11,09,19.10
2013,07,04,11,10,19.10
2013,07,04,11,11,19.10
2013,07,04,11,12,19.10
2013,07,04,11,13,19.10
2013,07,04,11,14,19.10
2013,07,04,11,15,19.10
2013,07,04,11,16,19.10
2013,07,04,11,17,19.10
2013,07,04,11,18,19.10
2013,07,04,11,19,19.20
2013,07,04,11,20,19.20
2013,07,04,11,21,19.20
2013,07,04,11,22,19.30
2013,07,04,11,23,19.30
2013,07,04,11,24,19.30
2013,07,04,11,25,19.30
2013,07,04,11,26,19.30
2013,07,04,11,27,19.30
2013,07,04,11,28,19.30
2013,07,04,11,29,19.20
2013,07,04,11,30,19.10
2013,07,04,11,31,19.00
2013,07,04,11,32,18.90
2013,07,04,11,33,18.90
2013,07,04,11,34,18.90
2013,07,04,11,35,18.90
2013,07,04,11,36,18.80
2013,07,04,11,37,18.90
2013,07,04,11,38,18.90
2013,07,04,11,39,19.00
2013,07,04,11,40,19.10
2013,07,04,11,41,19.10
2013,07,04,11,42,19.10
2013,07,04,11,43,19.10
2013,07,04,11,44,19.00
2013,07,04,11,45,19.00
2013,07,04,11,46,18.90
2013,07,04,11,47,18.90
2013,07,04,11,48,19.00
2013,07,04,11,49,19.00
2013,07,04,11,50,19.00
2013,07,04,11,51,19.00
2013,07,04,11,52,19.00
2013,07,04,11,53,19.10
2013,07,04,11,54,19.10
2013,07,04,11,55,19.10
2013,07,04,11,56,19.10
2013,07,04,11,57,19.10
2013,07,04,11,58,19.10
2013,07,04,11,59,19.10
2013,07,04,12,00,19.10
2013,07,04,12,01,19.10
2013,07,04,12,02,19.10
2013,07,04,12,03,19.20
2013,07,04,12,04,19.20
2013,07,04,12,05,19.20
2013,07,04,12,06,19.20
2013,07,04,12,07,19.30
2013,07,04,12,08,19.30
2013,07,04,12,09,19.30
2013,07,04,12,10,19.40
2013,07,04,12,11,19.50
2013,07,04,12,12,19.50
2013,07,04,12,13,19.60
2013,07,04,12,14,19.60
2013,07,04,12,15,19.70
2013,07,04,12,16,19.80
2013,07,04,12,17,19.80
2013,07,04,12,18,19.80
2013,07,04,12,19,19.80
2013,07,04,12,20,19.80
2013,07,04,12,21,19.80
2013,07,04,12,22,19.80
2013,07,04,12,23,19.80
2013,07,04,12,24,19.80
2013,07,04,12,25,19.80
2013,07,04,12,26,19.80
2013,07,04,12,27,19.90
2013,07,04,12,28,19.90
2013,07,04,12,29,19.90
2013,07,04,12,30,19.90
2013,07,04,12,31,19.90
2013,07,04,12,32,19.90
2013,07,04,12,33,19.90
2013,07,04,12,34,19.90
2013,07,04,12,35,19.90
2013,07,04,12,36,19.90
2013,07,04,12,37,19.90
2013,07,04,12,38,19.90
2013,07,04,12,39,19.90
2013,07,04,12,40,19.90
2013,07,04,12,41,19.90
2013,07,04,12,42,19.90
2013,07,04,12,43,19.90
2013,07,04,12,44,20.00
2013,07,04,12,45,20.10
2013,07,04,12,46,20.20
2013,07,04,12,47,20.20
2013,07,04,12,48,20.10
2013,07,04,12,49,20.10
2013,07,04,12,50,20.00
2013,07,04,12,51,20.00
2013,07,04,12,52,19.90
2013,07,04,12,53,19.90
2013,07,04,12,54,19.80
2013,07,04,12,55,19.80
2013,07,04,12,56,19.80
2013,07,04,12,57,19.80
2013,07,04,12,58,19.80
2013,07,04,12,59,19.90
2013,07,04,13,00,19.80
2013,07,04,13,01,19.70
2013,07,04,13,02,19.60
2013,07,04,13,03,19.50
2013,07,04,13,04,19.50
2013,07,04,13,05,19.40
2013,07,04,13,06,19.40
2013,07,04,13,07,19.30
2013,07,04,13,08,19.20
2013,07,04,13,09,19.20
2013,07,04,13,10,19.20
2013,07,04,13,11,19.20
2013,07,04,13,12,19.20
2013,07,04,13,13,19.20
2013,07,04,13,14,19.20
2013,07,04,13,15,19.30
2013,07,04,13,16,19.30
2013,07,04,13,17,19.40
2013,07,04,13,18,19.50
2013,07,04,13,19,19.60
2013,07,04,13,20,19.60
2013,07,04,13,21,19.70
2013,07,04,13,22,19.80
2013,07,04,13,23,19.90
2013,07,04,13,24,20.00
2013,07,04,13,25,20.00
2013,07,04,13,26,20.00
2013,07,04,13,27,20.10
2013,07,04,13,28,20.10
2013,07,04,13,29,20.10
2013,07,04,13,30,20.20
2013,07,04,13,31,20.20
2013,07,04,13,32,20.30
2013,07,04,13,33,20.40
2013,07,04,13,34,20.50
2013,07,04,13,35,20.60
2013,07,04,13,36,20.70
2013,07,04,13,37,20.80
2013,07,04,13,38,20.80
2013,07,04,13,39,20.80
2013,07,04,13,40,20.80
2013,07,04,13,41,20.80
2013,07,04,13,42,20.80
2013,07,04,13,43,20.80
2013,07,04,13,44,20.80
2013,07,04,13,45,20.90
2013,07,04,13,46,20.90
2013,07,04,13,47,21.00
2013,07,04,13,48,21.00
2013,07,04,13,49,21.10
2013,07,04,13,50,21.10
2013,07,04,13,51,21.10
2013,07,04,13,52,21.20
2013,07,04,13,53,21.20
2013,07,04,13,54,21.20
2013,07,04,13,55,21.20
2013,07,04,13,56,21.20
2013,07,04,13,57,21.20
2013,07,04,13,58,21.20
2013,07,04,13,59,21.20
2013,07,04,14,00,21.20
2013,07,04,14,01,21.20
2013,07,04,14,02,21.20
2013,07,04,14,03,21.20
2013,07,04,14,04,21.30
2013,07,04,14,05,21.30
2013,07,04,14,06,21.30
2013,07,04,14,07,21.30
2013,07,04,14,08,21.30
2013,07,04,14,09,21.30
2013,07,04,14,10,21.40
2013,07,04,14,11,21.40
2013,07,04,14,12,21.40
2013,07,04,14,13,21.40
2013,07,04,14,14,21.40
2013,07,04,14,15,21.50
2013,07,04,14,16,21.50
2013,07,04,14,17,21.50
2013,07,04,14,18,21.50
2013,07,04,14,19,21.50
2013,07,04,14,20,21.50
2013,07,04,14,21,21.50
2013,07,04,14,22,21.40
2013,07,04,14,23,21.30
2013,07,04,14,24,21.20
2013,07,04,14,25,21.10
2013,07,04,14,26,21.00
2013,07,04,14,27,20.90
2013,07,04,14,28,20.80
2013,07,04,14,29,20.70
2013,07,04,14,30,20.60
2013,07,04,14,31,20.50
2013,07,04,14,32,20.40
2013,07,04,14,33,20.30
2013,07,04,14,34,20.20
2013,07,04,14,35,20.10
2013,07,04,14,36,20.10
2013,07,04,14,37,20.00
2013,07,04,14,38,20.00
2013,07,04,14,39,19.90
2013,07,04,14,40,19.80
2013,07,04,14,41,19.80
2013,07,04,14,42,19.80
2013,07,04,14,43,19.70
2013,07,04,14,44,19.70
2013,07,04,14,45,19.60
2013,07,04,14,46,19.50
2013,07,04,14,47,19.50
2013,07,04,14,48,19.40
2013,07,04,14,49,19.30
2013,07,04,14,50,19.20
2013,07,04,14,51,19.10
2013,07,04,14,52,19.10
2013,07,04,14,53,19.10
2013,07,04,14,54,19.10
2013,07,04,14,55,19.10
2013,07,04,14,56,19.20
2013,07,04,14,57,19.20
2013,07,04,14,58,19.20
2013,07,04,14,59,19.10
2013,07,04,15,00,19.10
2013,07,04,15,01,19.10
2013,07,04,15,02,19.10
2013,07,04,15,03,19.10
2013,07,04,15,04,19.00
2013,07,04,15,05,19.00
2013,07,04,15,06,18.90
2013,07,04,15,07,18.90
2013,07,04,15,08,18.80
2013,07,04,15,09,18.80
2013,07,04,15,10,18.70
2013,07,04,15,11,18.70
2013,07,04,15,12,18.70
2013,07,04,15,13,18.70
2013,07,04,15,14,18.70
2013,07,04,15,15,18.70
2013,07,04,15,16,18.60
2013,07,04,15,17,18.60
2013,07,04,15,18,18.60
2013,07,04,15,19,18.60
2013,07,04,15,20,18.60
2013,07,04,15,21,18.60
2013,07,04,15,22,18.60
2013,07,04,15,23,18.60
2013,07,04,15,24,18.50
2013,07,04,15,25,18.50
2013,07,04,15,26,18.50
2013,07,04,15,27,18.60
2013,07,04,15,28,18.60
2013,07,04,15,29,18.60
2013,07,04,15,30,18.70
2013,07,04,15,31,18.70
2013,07,04,15,32,18.80
2013,07,04,15,33,18.90
2013,07,04,15,34,18.90
2013,07,04,15,35,18.90
2013,07,04,15,36,18.90
2013,07,04,15,37,18.90
2013,07,04,15,38,18.90
2013,07,04,15,39,18.90
2013,07,04,15,40,18.90
2013,07,04,15,41,19.00
2013,07,04,15,42,19.10
2013,07,04,15,43,19.10
2013,07,04,15,44,19.20
2013,07,04,15,45,19.20
2013,07,04,15,46,19.30
2013,07,04,15,47,19.30
2013,07,04,15,48,19.40
2013,07,04,15,49,19.40
2013,07,04,15,50,19.40
2013,07,04,15,51,19.40
2013,07,04,15,52,19.40
2013,07,04,15,53,19.40
2013,07,04,15,54,19.50
2013,07,04,15,55,19.50
2013,07,04,15,56,19.60
2013,07,04,15,57,19.70
2013,07,04,15,58,19.80
2013,07,04,15,59,19.90
2013,07,04,16,00,19.90
2013,07,04,16,01,20.00
2013,07,04,16,02,20.10
2013,07,04,16,03,20.10
2013,07,04,16,04,20.10
2013,07,04,16,05,20.10
2013,07,04,16,06,20.10
2013,07,04,16,07,20.10
2013,07,04,16,08,20.10
2013,07,04,16,09,20.10
2013,07,04,16,10,20.10
2013,07,04,16,11,20.10
2013,07,04,16,12,20.10
2013,07,04,16,13,20.10
2013,07,04,16,14,20.10
2013,07,04,16,15,20.00
2013,07,04,16,16,20.00
2013,07,04,16,17,19.90
2013,07,04,16,18,19.90
2013,07,04,16,19,19.90
2013,07,04,16,20,19.90
2013,07,04,16,21,19.90
2013,07,04,16,22,19.90
2013,07,04,16,23,19.80
2013,07,04,16,24,19.80
2013,07,04,16,25,19.80
2013,07,04,16,26,19.70
2013,07,04,16,27,19.70
2013,07,04,16,28,19.70
2013,07,04,16,29,19.80
2013,07,04,16,30,19.80
2013,07,04,16,31,19.90
2013,07,04,16,32,20.00
2013,07,04,16,33,20.20
2013,07,04,16,34,20.30
2013,07,04,16,35,20.40
2013,07,04,16,36,20.60
2013,07,04,16,37,20.80
2013,07,04,16,38,20.90
2013,07,04,16,39,21.00
2013,07,04,16,40,21.10
2013,07,04,16,41,21.10
2013,07,04,16,42,21.20
2013,07,04,16,43,21.30
2013,07,04,16,44,21.40
2013,07,04,16,45,21.40
2013,07,04,16,46,21.50
2013,07,04,16,47,21.60
2013,07,04,16,48,21.60
2013,07,04,16,49,21.70
2013,07,04,16,50,21.60
2013,07,04,16,51,21.60
2013,07,04,16,52,21.50
2013,07,04,16,53,21.40
2013,07,04,16,54,21.40
2013,07,04,16,55,21.30
2013,07,04,16,56,21.30
2013,07,04,16,57,21.30
2013,07,04,16,58,21.30
2013,07,04,16,59,21.30
2013,07,04,17,00,21.30
2013,07,04,17,01,21.30
2013,07,04,17,02,21.30
2013,07,04,17,03,21.40
2013,07,04,17,04,21.40
2013,07,04,17,05,21.50
2013,07,04,17,06,21.60
2013,07,04,17,07,21.60
2013,07,04,17,08,21.60
2013,07,04,17,09,21.60
2013,07,04,17,10,21.50
2013,07,04,17,11,21.50
2013,07,04,17,12,21.50
2013,07,04,17,13,21.40
2013,07,04,17,14,21.50
2013,07,04,17,15,21.50
2013,07,04,17,16,21.50
2013,07,04,17,17,21.60
2013,07,04,17,18,21.50
2013,07,04,17,19,21.50